Ostrava, Czech Republic

9:47 AM CEST on July 26, 2017 (GMT +0200)
Mosnov

Weather History for LKMT - October, 2013

Change the Weather History Date:

Thursday, October 31, 2013

  Actual Average Record
Temperature  
Mean Temperature 42 °F -  
Max Temperature 54 °F 44 °F - ()
Min Temperature 29 °F 34 °F - ()
Degree Days  
Heating Degree Days 24    
Moisture  
Dew Point 34 °F    
Average Humidity 80    
Maximum Humidity 100    
Minimum Humidity 38    
Precipitation  
Precipitation 0.00 in 0.06 in - ()
Sea Level Pressure  
Sea Level Pressure 30.34 in    
Wind  
Wind Speed 3 mph ()    
Max Wind Speed 7 mph    
Max Gust Speed -    
Visibility 4.5 miles    
Events Fog    
T = Trace of Precipitation, MM = Missing Value Source: Averaged Metar Reports

Daily Weather History Graph

Daily Weather History Graph

Search for Another Location

Airport or City:

Trip Planner

Search our weather history database for the weather conditions in past years. The results will help you decide how hot, cold, wet, or windy it might be!

Date:

Astronomy

Oct. 31, 2013 Rise Set
Actual Time 6:34 AM CET 4:26 PM CET
Civil Twilight 6:01 AM CET 5:00 PM CET
Nautical Twilight 5:23 AM CET 5:38 PM CET
Astronomical Twilight 4:45 AM CET 6:15 PM CET
Moon 2:48 AM CET (10/31) 2:49 PM CET (10/31)
Length of Visible Light 10h 59m
Length of Day
9h 52m
Waning Crescent, 11% of the Moon is Illuminated
Oct 31
Waning Crescent
Nov 3
New
Nov 10
First Quarter
Nov 17
Full
Nov 25
Last Quarter

Hourly Weather History & Observations

Time (CET) Temp. Windchill Dew Point Humidity Pressure Visibility Wind Dir Wind Speed Gust Speed Precip Events Conditions
12:00 AM 35.6 °F 30.7 °F 33.8 °F 93% 30.36 in - SSW 5.8 mph - N/A   Clear
12:30 AM 37.4 °F - 35.6 °F 93% 30.39 in - Variable 2.3 mph - N/A   Clear
1:00 AM 36 °F - 35 °F 96% 30.43 in 7 mi SSW 4.5 mph - -  
1:00 AM 37.4 °F 34.9 °F 35.6 °F 93% 30.39 in - SSW 3.5 mph - N/A   Clear
1:30 AM 35.6 °F 32.8 °F 32.0 °F 87% 30.39 in - SSW 3.5 mph - N/A   Clear
2:00 AM 33.8 °F - 32.0 °F 93% 30.39 in - SW 2.3 mph - N/A   Clear
2:30 AM 33.8 °F - 32.0 °F 93% 30.39 in 5.6 mi Variable 2.3 mph - N/A   Unknown
3:00 AM 32.0 °F - 32.0 °F 100% 30.39 in 5.6 mi Variable 2.3 mph - N/A   Mist
3:30 AM 32.0 °F - 30.2 °F 93% 30.39 in - Variable 2.3 mph - N/A   Clear
4:00 AM 32.0 °F - 30.2 °F 93% 30.39 in 5.6 mi WSW 2.3 mph - N/A   Unknown
4:30 AM 30.2 °F - 30.2 °F 100% 30.39 in 3.7 mi Variable 2.3 mph - N/A   Unknown
5:00 AM 32.0 °F - 30.2 °F 93% 30.39 in 0.7 mi Variable 1.2 mph - N/A   Mist
5:11 AM 32.0 °F - 30.2 °F 93% 30.39 in 1.9 mi Variable 1.2 mph - N/A   Scattered Clouds
5:30 AM 32.0 °F - 30.2 °F 93% 30.39 in 2.5 mi Calm Calm - N/A   Mist
6:00 AM 30.2 °F - 30.2 °F 100% 30.39 in 1.9 mi Calm Calm - N/A Fog Fog
6:30 AM 30.2 °F - 30.2 °F 100% 30.39 in 2.5 mi Calm Calm - N/A Fog Mist
7:00 AM 30 °F - 29 °F 92% 30.46 in 3 mi NW 2.2 mph - - Fog Light Fog
7:00 AM 30.2 °F - 28.4 °F 93% 30.39 in 3.1 mi NW 1.2 mph - N/A Fog Mist
7:30 AM 32.0 °F - 30.2 °F 93% 30.39 in 5.0 mi Variable 1.2 mph - N/A Fog Unknown
7:42 AM 32.0 °F - 30.2 °F 93% 30.39 in 1.2 mi Calm Calm - N/A Fog Mist
8:00 AM 33.8 °F - 32.0 °F 93% 30.39 in 1.6 mi NNW 1.2 mph - N/A Fog Mist
8:30 AM 37.4 °F - 33.8 °F 87% 30.39 in 5.0 mi Calm Calm - N/A Fog Unknown
9:00 AM 39.2 °F - 35.6 °F 87% 30.39 in 5.0 mi Calm Calm - N/A Fog Unknown
9:30 AM 41.0 °F - 37.4 °F 87% 30.39 in 5.6 mi Variable 1.2 mph - N/A   Unknown
10:00 AM 41.0 °F - 37.4 °F 87% 30.39 in - Variable 2.3 mph - N/A   Clear
10:30 AM 44.6 °F 43.1 °F 39.2 °F 81% 30.39 in - North 3.5 mph - N/A   Clear
11:00 AM 46.4 °F 44.3 °F 39.2 °F 76% 30.39 in - NNE 4.6 mph - N/A   Clear
11:30 AM 48.2 °F - 39.2 °F 71% 30.36 in - NNE 5.8 mph - N/A   Clear
12:00 PM 51.8 °F - 39.2 °F 62% 30.36 in - NE 5.8 mph - N/A   Clear
12:30 PM 51.8 °F - 37.4 °F 58% 30.36 in - NNE 5.8 mph - N/A   Clear
1:00 PM 53 °F - 35 °F 38% 30.35 in 7 mi NE 6.7 mph - -   Clear
1:00 PM 53.6 °F - 37.4 °F 54% 30.33 in - NE 5.8 mph - N/A   Clear
1:30 PM 53.6 °F - 35.6 °F 51% 30.33 in - NNE 4.6 mph - N/A   Clear
2:00 PM 53.6 °F - 37.4 °F 54% 30.30 in - North 4.6 mph - N/A   Clear
2:30 PM 53.6 °F - 35.6 °F 51% 30.30 in - NNE 3.5 mph - N/A   Clear
3:00 PM 53.6 °F - 35.6 °F 51% 30.30 in - North 3.5 mph - N/A   Clear
3:30 PM 53.6 °F - 37.4 °F 54% 30.30 in - NNE 3.5 mph - N/A   Clear
4:00 PM 51 °F - 35 °F 43% 30.31 in 12 mi NNE 4.5 mph - -  
4:00 PM 51.8 °F - 35.6 °F 54% 30.30 in - NNE 2.3 mph - N/A   Clear
4:30 PM 50.0 °F - 35.6 °F 58% 30.27 in - North 3.5 mph - N/A   Clear
5:00 PM 48.2 °F - 35.6 °F 62% 30.27 in - Variable 1.2 mph - N/A   Clear
5:30 PM 44.6 °F - 33.8 °F 66% 30.27 in - Calm Calm - N/A   Clear
6:00 PM 44.6 °F - 35.6 °F 71% 30.27 in - SW 2.3 mph - N/A   Clear
6:30 PM 44.6 °F 43.1 °F 35.6 °F 71% 30.27 in - SW 3.5 mph - N/A   Clear
7:00 PM 43 °F - 36 °F 69% 30.31 in 9 mi SSW 4.5 mph - -  
7:00 PM 42.8 °F 41.1 °F 35.6 °F 76% 30.27 in - SSW 3.5 mph - N/A   Clear
7:30 PM 42.8 °F 41.1 °F 37.4 °F 81% 30.27 in - South 3.5 mph - N/A   Clear
8:00 PM 37.4 °F 33.8 °F 32.0 °F 81% 30.27 in - SW 4.6 mph - N/A   Clear
8:30 PM 35.6 °F 30.7 °F 32.0 °F 87% 30.24 in - SW 5.8 mph - N/A   Clear
9:00 PM 37.4 °F 32.8 °F 35.6 °F 93% 30.24 in - SW 5.8 mph - N/A   Clear
9:30 PM 37.4 °F 34.9 °F 33.8 °F 87% 30.24 in - SSW 3.5 mph - N/A   Clear
10:00 PM 37.4 °F 32.8 °F 33.8 °F 87% 30.24 in - SW 5.8 mph - N/A   Clear
10:30 PM 37.4 °F 32.1 °F 33.8 °F 87% 30.24 in - SW 6.9 mph - N/A   Clear
11:00 PM 37.4 °F 32.8 °F 33.8 °F 87% 30.24 in - SW 5.8 mph - N/A   Clear
11:30 PM 37.4 °F 32.8 °F 33.8 °F 87% 30.24 in - SW 5.8 mph - N/A   Clear